RH
26 26 27 41 63 62 91 87 91 74 58 61 57 48 44 48 40 37 36 36 36 37 40 38 36 35 33 32 30 28 27 26 24 24 22 22 22 20 18 16 14 13 12
33 32 28 35 47 73 70 86 89 87 64 62 69 55 51 52 43 42 40 39 40 39 38 37 35 36 35 31 30 28 25 24 23 22 20 20 18 16 15 14 13 12 12
42 39 36 33 46 50 87 87 89 87 83 73 58 65 60 54 40 42 42 45 47 44 42 40 40 37 36 32 29 28 26 25 24 23 22 20 19 16 14 13 13 14 15
40 40 40 36 36 49 62 97 97 95 81 83 70 59 67 58 43 40 39 41 44 49 46 44 39 36 33 33 32 30 28 26 25 25 23 20 17 15 13 14 16 14 16
42 40 38 38 38 38 52 77 100 99 90 84 81 77 63 61 46 42 41 40 40 43 45 37 37 38 34 31 32 32 33 27 24 22 20 18 17 16 18 16 15 16 19
32 46 42 38 39 40 37 52 100 100 100 98 86 92 80 68 59 45 41 42 38 40 41 38 36 34 35 34 34 35 36 32 25 23 23 19 19 16 16 17 17 19 21
24 26 43 45 39 41 43 45 66 99 100 100 100 100 88 79 67 61 52 54 38 38 39 41 45 49 47 42 41 40 38 38 25 24 22 20 18 17 21 19 21 23 25
16 21 24 42 46 41 41 48 65 75 99 100 100 100 89 73 70 75 84 66 48 40 41 42 42 48 52 48 47 45 42 42 29 24 22 21 20 23 23 19 21 25 24
19 17 18 24 44 46 46 52 63 74 91 100 100 99 92 84 74 69 83 65 59 43 46 48 46 43 48 58 56 56 55 47 44 28 27 23 25 28 23 22 28 29 26
19 20 19 18 25 46 46 54 67 72 76 97 100 84 96 93 90 83 73 62 64 60 54 51 46 48 51 55 65 66 67 54 47 34 32 28 29 28 26 28 32 35 30
16 19 26 26 27 34 47 55 68 98 99 78 88 81 88 100 100 90 86 76 83 91 85 74 56 52 53 54 56 78 79 58 50 39 37 32 31 30 27 30 35 43 35
15 15 18 24 47 38 53 52 66 79 100 99 85 86 99 99 100 86 86 90 99 90 77 93 83 86 76 68 67 73 75 56 47 43 38 33 32 31 30 32 41 48 40
10 12 14 18 58 69 55 52 60 75 81 100 84 86 99 100 93 74 78 85 100 84 78 88 99 97 97 88 77 71 74 64 42 40 37 35 34 34 35 36 55 55 47
8 9 11 14 43 87 73 86 62 77 78 83 76 77 100 98 100 88 81 98 100 75 74 71 88 80 82 89 62 65 72 61 44 43 42 39 41 38 38 54 53 57 49
6 6 9 13 17 88 100 100 78 73 76 77 70 70 80 80 74 72 73 81 99 89 82 76 86 81 72 52 54 62 62 52 47 46 46 47 44 48 58 67 66 55 53
5 5 8 12 19 49 100 100 100 84 86 74 68 63 57 64 54 60 64 70 78 90 84 72 67 64 51 50 53 54 48 45 44 44 57 64 62 76 79 66 57 51 49
4 5 8 13 20 99 100 100 100 89 90 87 71 67 57 58 53 49 48 56 65 91 88 68 57 53 56 68 62 61 59 58 59 72 97 100 93 89 85 69 55 46 43
3 6 8 15 12 50 100 100 100 100 74 100 83 77 65 56 54 51 52 50 53 59 70 64 76 87 99 100 100 100 100 100 100 100 100 87 75 70 61 63 50 42 36
3 6 8 11 13 50 100 100 100 100 99 83 72 72 75 64 56 53 52 52 51 51 54 79 82 97 100 100 100 100 100 100 100 100 95 75 77 69 55 55 49 48 48
3 8 10 14 23 42 100 87 100 100 100 99 59 59 66 71 62 58 59 55 57 57 77 88 100 100 100 100 100 100 100 100 100 100 100 100 86 86 72 69 66 60 58
4 10 12 15 28 60 100 91 100 83 100 100 62 65 61 64 67 70 63 63 63 74 92 100 100 100 100 100 100 100 100 100 100 100 100 100 100 95 90 71 67 62 59
7 10 12 19 34 94 100 81 100 100 100 100 100 100 100 89 92 98 84 83 73 82 100 100 100 100 100 96 98 96 100 100 100 100 100 100 100 100 90 67 56 54 59
8 12 20 33 86 88 100 79 94 100 100 99 100 100 100 100 100 100 100 100 96 95 100 100 100 100 100 99 96 85 94 100 100 100 100 100 100 80 65 63 59 53 42
10 13 31 96 100 100 74 76 100 100 100 100 100 100 100 100 100 100 100 100 100 100 100 100 100 100 100 100 100 94 84 90 100 95 100 100 95 85 61 53 41 42 44
11 14 17 41 54 100 99 100 100 100 100 100 100 100 100 100 100 100 100 100 100 100 100 100 100 100 100 100 100 95 97 100 100 100 82 88 73 61 43 28 46 48 44
12 16 29 58 100 100 90 100 100 100 96 100 100 100 100 100 100 100 100 100 100 100 100 100 100 100 100 100 100 100 100 100 100 100 100 70 48 35 26 41 40 34 23
Wind_Speed
43 41 41 43 44 42 40 38 37 35 32 31 28 27 24 19 18 16 15 14 14 13 14 14 14 14 15 16 16 17 17 18 19 19 20 21 21 23 25 25 24 25 26
48 46 44 44 45 46 44 42 42 38 35 35 32 30 28 23 23 22 20 18 18 17 17 17 17 16 18 18 19 21 21 22 23 23 24 24 24 23 23 22 23 24 26
54 52 50 48 48 48 48 46 45 43 39 39 37 35 33 28 25 26 24 22 20 20 20 20 21 21 22 22 22 24 25 26 26 26 25 22 21 20 20 20 20 23 26
58 57 55 53 51 51 51 50 49 48 45 43 41 38 37 32 29 27 26 24 23 22 24 23 24 24 23 23 23 24 25 25 25 24 20 20 20 19 20 20 22 24 26
62 61 59 58 56 55 54 53 53 51 49 48 45 43 40 36 32 30 28 27 25 24 24 25 26 26 26 25 25 25 24 24 23 21 20 21 21 21 21 22 24 26 28
67 68 64 63 60 58 56 56 56 54 52 51 49 46 45 40 37 33 31 29 28 26 25 26 27 26 28 28 28 27 26 25 24 22 21 24 24 23 24 25 26 28 28
70 70 70 68 65 62 59 59 58 58 56 55 52 50 49 45 41 38 36 33 31 29 27 27 27 27 28 29 30 30 28 27 27 27 28 28 27 26 26 28 29 28 29
65 72 73 73 71 67 64 62 61 59 58 59 57 54 52 49 45 40 40 37 36 32 31 30 30 30 31 32 32 32 32 30 31 32 30 28 28 28 29 32 30 29 32
73 71 72 77 74 72 68 64 63 63 62 61 60 57 55 52 47 44 43 41 40 37 35 35 33 31 33 34 33 33 34 32 30 32 31 29 29 30 33 33 30 30 33
75 78 75 76 77 76 73 68 65 66 65 65 64 59 56 53 50 47 46 43 41 40 39 39 37 35 34 32 31 32 32 32 31 31 32 31 31 33 33 34 32 33 34
74 79 79 75 72 79 77 73 69 69 68 66 65 60 57 54 52 51 48 46 43 40 41 41 40 39 35 33 30 29 31 31 32 31 33 32 34 36 36 36 35 36 35
76 78 81 80 76 77 81 78 75 73 72 69 65 62 59 57 55 53 50 49 47 45 45 43 42 41 38 37 32 31 32 30 32 33 34 35 37 38 38 38 38 36 36
80 82 82 87 71 70 79 79 79 76 74 72 69 64 62 60 60 57 52 49 50 47 45 44 44 42 42 41 38 34 32 31 32 35 36 38 38 39 39 40 39 38 38
83 86 86 88 74 69 72 76 81 81 78 74 72 67 65 63 61 59 52 51 52 50 46 44 44 43 40 41 39 33 33 33 35 36 38 39 40 40 41 40 41 41 42
83 88 87 88 87 76 71 71 81 84 80 78 73 70 67 63 62 59 55 53 53 52 46 44 43 42 39 38 37 35 34 35 37 39 39 41 42 42 42 41 41 42 42
75 81 87 88 83 78 83 80 80 84 83 77 74 71 67 64 60 57 53 52 51 50 47 43 41 41 40 39 37 37 38 38 40 41 41 43 44 42 43 43 45 46 46
72 78 87 91 99 84 87 81 75 79 82 77 75 72 68 63 59 55 53 51 49 50 48 45 42 41 39 40 40 41 42 44 44 43 42 42 43 44 44 46 49 50 49
73 81 90 101 100 97 90 83 79 72 76 79 77 71 67 64 58 53 52 50 50 48 48 46 43 42 41 41 42 43 43 44 40 40 43 47 50 49 51 51 54 53 56
75 86 93 95 91 90 86 80 80 74 71 77 75 73 68 64 59 54 50 50 49 49 46 47 45 43 42 42 42 42 43 42 43 47 49 54 54 54 55 54 55 57 58
75 90 93 96 99 95 83 86 79 75 69 73 67 65 66 64 60 56 53 51 49 50 48 47 47 43 43 44 45 45 45 47 50 51 52 55 59 58 58 58 58 58 59
78 96 98 96 99 97 90 80 86 75 67 77 63 60 59 59 59 58 56 55 53 50 49 48 42 42 41 43 42 42 45 49 49 51 52 56 59 60 62 62 63 64 62
86 100 97 101 97 92 91 85 82 80 70 66 65 70 57 54 55 57 59 59 56 54 50 50 46 45 48 49 50 44 43 50 49 51 53 55 60 60 64 65 69 67 65
94 97 97 97 88 94 91 79 84 79 67 69 59 64 66 62 62 55 59 60 59 57 54 50 47 47 50 52 53 54 49 47 49 52 58 61 64 68 72 73 73 70 71
101 99 106 102 94 84 85 74 67 67 66 76 73 71 73 69 65 63 60 60 60 59 55 50 49 50 52 54 54 58 60 57 52 57 61 64 67 71 73 76 77 73 67
100 101 103 102 97 88 76 73 70 72 71 75 72 71 74 71 64 62 60 55 55 54 53 51 52 54 55 55 53 52 56 56 55 62 68 71 74 73 73 73 65 64 69
103 101 101 96 96 92 79 80 79 80 75 68 82 78 70 72 72 64 62 61 61 58 55 54 59 58 55 56 56 52 54 55 61 63 67 73 77 79 77 77 73 72 76
Wind_Direction
240 239 240 237 235 237 237 237 237 242 236 232 238 237 235 247 244 239 234 230 235 236 238 242 243 247 254 262 265 269 273 274 277 281 281 281 282 282 280 284 285 288 288
240 240 236 236 236 234 237 238 238 238 239 234 237 238 237 241 240 241 241 238 238 243 245 247 252 256 263 267 272 274 274 273 276 278 280 281 281 283 285 289 293 295 300
237 239 239 236 233 234 233 236 238 240 237 236 238 238 240 243 234 241 241 244 244 247 250 256 261 264 269 274 277 280 280 280 280 278 278 273 273 274 279 288 297 303 312
236 236 236 236 235 232 231 232 236 239 239 236 239 240 241 243 236 239 240 243 245 247 251 255 258 263 267 274 279 285 287 286 283 277 269 267 270 277 287 292 300 308 316
236 236 235 234 234 233 231 229 232 236 239 238 240 244 244 244 242 240 237 242 244 247 251 255 258 261 264 270 274 283 289 284 275 268 265 267 273 282 287 293 300 309 318
238 236 235 235 232 232 233 231 229 233 236 237 240 241 245 243 246 243 238 241 243 243 248 252 255 259 264 268 273 281 289 280 269 262 262 267 274 280 288 296 304 313 319
241 239 234 233 233 231 231 232 230 231 234 234 238 240 242 243 244 245 245 247 246 245 247 252 256 263 267 271 275 280 283 278 263 261 260 267 275 282 293 299 308 313 320
241 240 237 232 232 231 230 231 231 231 232 234 236 238 241 244 244 241 247 248 254 254 252 255 258 263 265 269 273 277 280 277 263 262 266 273 279 287 294 300 306 314 318
246 241 238 236 230 231 230 229 231 230 230 232 235 238 240 242 244 243 243 251 255 257 259 261 265 265 268 271 273 278 281 277 265 262 268 275 281 288 294 300 307 312 313
241 242 237 236 232 229 229 229 230 232 231 232 235 238 240 241 243 243 247 251 255 261 263 264 266 269 269 270 276 275 276 273 265 263 269 275 280 285 291 298 305 306 309
241 236 236 233 235 231 228 227 227 230 231 232 235 236 237 239 242 242 246 251 253 256 260 267 272 276 279 279 276 275 275 271 263 261 268 274 279 285 291 296 301 304 304
237 235 228 229 228 229 228 226 226 228 228 231 234 235 235 236 239 242 246 250 252 255 261 264 269 275 279 280 280 278 274 270 265 263 268 272 279 285 290 296 300 300 301
236 231 226 223 221 225 229 227 226 227 228 230 232 233 233 237 241 244 246 249 251 256 260 261 264 269 273 275 277 276 272 268 267 267 270 275 280 285 290 295 297 296 300
232 227 223 218 213 220 222 228 229 226 228 228 231 231 234 234 237 243 243 247 251 255 258 261 262 264 266 271 273 269 267 267 267 272 275 278 281 285 289 291 295 295 298
229 226 218 213 208 211 216 221 225 227 228 228 229 231 232 235 237 242 244 245 249 254 256 260 262 264 266 267 268 268 266 268 269 273 278 282 284 287 289 290 289 293 295
228 223 213 207 203 207 212 219 221 222 225 228 230 230 232 234 237 240 243 247 250 253 254 257 258 261 263 267 268 269 271 272 275 276 281 282 284 284 283 286 289 291 293
221 215 209 200 201 199 213 211 220 223 222 225 228 231 231 234 236 239 243 245 249 250 255 255 254 256 260 265 268 272 274 277 278 280 282 279 280 279 280 284 288 289 292
214 207 202 197 199 200 204 212 215 223 221 222 225 228 231 234 236 237 241 245 248 249 252 255 257 259 261 262 268 272 276 278 280 278 277 278 278 278 282 283 288 288 294
208 203 201 197 195 200 202 206 218 222 221 224 227 228 230 233 235 237 239 243 245 249 250 254 259 262 268 272 274 277 279 276 275 275 276 278 280 281 283 285 288 291 293
205 198 194 192 190 197 204 205 214 217 220 224 226 225 228 232 234 238 241 242 244 248 253 256 258 259 267 273 273 275 276 276 279 278 278 280 281 281 281 283 286 289 292
197 194 193 191 190 196 202 203 213 218 216 216 219 222 227 233 236 236 240 244 245 245 253 256 256 263 263 269 267 270 274 276 278 276 275 275 278 282 283 287 289 290 294
191 193 191 186 192 193 200 203 208 213 219 218 221 224 228 232 237 239 241 244 245 248 250 258 255 261 260 262 262 264 270 272 273 271 272 274 276 281 284 284 286 290 295
190 188 188 189 192 193 199 207 210 212 203 206 217 225 231 235 240 240 242 242 244 246 251 256 258 258 263 264 264 264 260 265 271 274 273 273 277 280 282 286 288 289 294
190 184 187 189 191 194 194 198 204 210 215 212 217 223 223 236 236 243 244 246 247 248 252 255 257 257 263 264 265 267 263 262 262 269 274 273 274 277 280 282 286 291 291
188 187 187 192 192 195 192 201 205 211 207 210 216 224 227 228 234 239 240 244 248 246 247 253 256 258 262 260 262 264 265 265 267 265 270 276 279 279 282 291 290 292 291
188 189 189 188 188 191 197 204 207 210 213 215 216 222 226 229 232 233 241 241 246 247 249 251 253 256 259 256 260 260 263 267 266 267 269 271 277 284 286 290 289 289 293